User: anonymous   Login
Location: Unspecified
(0.0000°N, 0.0000°E)
Time: 08:33:58
(UTC+00:00)
Language:

S-56A Canister/Altair - Orbit

View from above orbital plane
View from above orbital plane
View from above satellite
View from above satellite

Ground track
Ground track

The orbit data is extracted from the following two-line orbital elements,

1 00082U 61004B   16123.08015808  .00000049  00000-0  89195-4 0  9993
2 00082  38.8611  18.1631 1167058  10.3404 351.9246 12.25755938622815
Epoch (UTC): 02 May 2016 01:55:25
Eccentricity: 0.1167058
inclination: 38.8611°
perigee height: 640 km
apogee height: 2495 km
right ascension of ascending node: 18.1631°
argument of perigee: 10.3404°
revolutions per day: 12.25755938
mean anomaly at epoch: 351.9246°
orbit number at epoch: 62281

The dashed part of the orbit path shows where the satellite is in the earth's shadow,  

DLR